| time (UTC) | temp C | wind direction | speed KPH | gust KPH | rain 1hr cm | rain 24hr cm | rain mn cm | humidity % | barometer mb |
| 20260505003737 | 14 | 69 | 6.4 | 20.9 | 0.00 | 0.00 | 0.00 | 49 | 1010.2 |
| 20260505003235 | 14 | 56 | 6.4 | 16.1 | 0.00 | 0.00 | 0.00 | 48 | 1010.2 |
| 20260505003026 | 13 | 246 | 1.6 | 11.3 | 0.00 | 0.00 | 0.00 | 56 | 1009.9 |
| 20260505002731 | 14 | 21 | 6.4 | 16.1 | 0.00 | 0.00 | 0.00 | 47 | 1009.8 |
| 20260505001721 | 14 | 34 | 4.8 | 16.1 | 0.00 | 0.00 | 0.00 | 46 | 1009.8 |
| 20260505001516 | 14 | 65 | 1.6 | 12.9 | 0.00 | 0.00 | 0.00 | 54 | 1009.4 |
| 20260505001210 | 14 | 59 | 6.4 | 16.1 | 0.00 | 0.00 | 0.00 | 45 | 1009.6 |
| 20260505000707 | 15 | 6 | 8.0 | 16.1 | 0.00 | 0.00 | 0.00 | 45 | 1009.6 |
| 20260505000207 | 15 | 42 | 6.4 | 16.1 | 0.00 | 0.00 | 0.00 | 44 | 1009.6 |
| 20260505000025 | 15 | 173 | 4.8 | 14.5 | 0.00 | 0.00 | 0.00 | 52 | 1009.3 |
| 20260504235150 | 15 | 328 | 6.4 | 16.1 | 0.00 | 0.00 | 0.00 | 42 | 1009.5 |
| 20260504234525 | 15 | 136 | 3.2 | 19.3 | 0.00 | 0.00 | 0.00 | 50 | 1009.1 |
| 20260504234115 | 16 | 51 | 6.4 | 16.1 | 0.00 | 0.00 | 0.00 | 40 | 1009.3 |
| 20260504233028 | 16 | 284 | 3.2 | 12.9 | 0.00 | 0.00 | 0.00 | 48 | 1008.9 |
| 20260504232608 | 16 | 34 | 8.0 | 16.1 | 0.00 | 0.00 | 0.00 | 39 | 1009.1 |
| 20260504232106 | 16 | 20 | 8.0 | 16.1 | 0.00 | 0.00 | 0.00 | 39 | 1009.1 |
| 20260504231601 | 16 | 10 | 6.4 | 17.7 | 0.00 | 0.00 | 0.00 | 38 | 1009.1 |
| 20260504231528 | 16 | 254 | 1.6 | 14.5 | 0.00 | 0.00 | 0.00 | 46 | 1008.8 |
| 20260504231100 | 16 | 0 | 6.4 | 24.1 | 0.00 | 0.00 | 0.00 | 38 | 1009.2 |
| 20260504230559 | 17 | 0 | 9.7 | 24.1 | 0.00 | 0.00 | 0.00 | 37 | 1009.2 |
| 20260504230106 | 17 | 71 | 9.7 | 20.9 | 0.00 | 0.00 | 0.00 | 38 | 1009.2 |
| 20260504230018 | 17 | 300 | 4.8 | 25.7 | 0.00 | 0.00 | 0.00 | 45 | 1008.7 |
| 20260504225551 | 17 | 49 | 9.7 | 22.5 | 0.00 | 0.00 | 0.00 | 37 | 1008.9 |
| 20260504225049 | 17 | 328 | 9.7 | 22.5 | 0.00 | 0.00 | 0.00 | 37 | 1008.9 |
| 20260504224538 | 17 | 30 | 9.7 | 22.5 | 0.00 | 0.00 | 0.00 | 36 | 1008.9 |
| 20260504224532 | 17 | 304 | 6.4 | 17.7 | 0.00 | 0.00 | 0.00 | 44 | 1008.4 |
| 20260504224038 | 17 | 344 | 11.3 | 29.0 | 0.00 | 0.00 | 0.00 | 37 | 1008.8 |
| 20260504223537 | 17 | 54 | 9.7 | 29.0 | 0.00 | 0.00 | 0.00 | 36 | 1008.8 |
| 20260504223035 | 17 | 329 | 9.7 | 20.9 | 0.00 | 0.00 | 0.00 | 36 | 1008.8 |
| 20260504223025 | 17 | 154 | 4.8 | 19.3 | 0.00 | 0.00 | 0.00 | 44 | 1008.3 |
| 20260504222530 | 17 | 7 | 11.3 | 22.5 | 0.00 | 0.00 | 0.00 | 34 | 1008.8 |
| 20260504222029 | 18 | 21 | 11.3 | 35.4 | 0.00 | 0.00 | 0.00 | 34 | 1008.8 |
| 20260504221527 | 18 | 35 | 11.3 | 35.4 | 0.00 | 0.00 | 0.00 | 34 | 1008.8 |
| 20260504221021 | 18 | 23 | 11.3 | 35.4 | 0.00 | 0.00 | 0.00 | 33 | 1008.7 |
| 20260504220520 | 18 | 42 | 9.7 | 32.2 | 0.00 | 0.00 | 0.00 | 32 | 1008.7 |
| 20260504220028 | 18 | 157 | 8.0 | 24.1 | 0.00 | 0.00 | 0.00 | 41 | 1008.0 |
| 20260504215517 | 19 | 0 | 11.3 | 22.5 | 0.00 | 0.00 | 0.00 | 32 | 1008.6 |
| 20260504215015 | 19 | 25 | 11.3 | 27.4 | 0.00 | 0.00 | 0.00 | 30 | 1008.6 |
| 20260504214524 | 19 | 178 | 4.8 | 29.0 | 0.00 | 0.00 | 0.00 | 39 | 1008.0 |
| 20260504214513 | 19 | 48 | 12.9 | 27.4 | 0.00 | 0.00 | 0.00 | 30 | 1008.6 |
| 20260504214007 | 19 | 11 | 11.3 | 27.4 | 0.00 | 0.00 | 0.00 | 30 | 1008.6 |
| 20260504213455 | 19 | 342 | 11.3 | 32.2 | 0.00 | 0.00 | 0.00 | 30 | 1008.6 |
| 20260504213026 | 19 | 170 | 8.0 | 30.6 | 0.00 | 0.00 | 0.00 | 37 | 1007.9 |
| 20260504212943 | 20 | 55 | 11.3 | 32.2 | 0.00 | 0.00 | 0.00 | 29 | 1008.6 |
| 20260504212431 | 20 | 51 | 9.7 | 24.1 | 0.00 | 0.00 | 0.00 | 29 | 1008.4 |
| 20260504211527 | 19 | 182 | 6.4 | 25.7 | 0.00 | 0.00 | 0.00 | 37 | 1007.8 |
| 20260504210929 | 20 | 0 | 11.3 | 25.7 | 0.00 | 0.00 | 0.00 | 29 | 1008.3 |
| 20260504210426 | 20 | 10 | 11.3 | 27.4 | 0.00 | 0.00 | 0.00 | 27 | 1008.3 |
| 20260504210037 | 20 | 140 | 6.4 | 19.3 | 0.00 | 0.00 | 0.00 | 36 | 1007.7 |
| 20260504205924 | 20 | 347 | 12.9 | 27.4 | 0.00 | 0.00 | 0.00 | 27 | 1008.3 |
| 20260504205421 | 20 | 35 | 11.3 | 24.1 | 0.00 | 0.00 | 0.00 | 28 | 1008.2 |
| 20260504204919 | 20 | 48 | 11.3 | 22.5 | 0.00 | 0.00 | 0.00 | 26 | 1008.2 |
| 20260504204529 | 20 | 261 | 3.2 | 20.9 | 0.00 | 0.00 | 0.00 | 36 | 1007.8 |
| 20260504204417 | 20 | 23 | 11.3 | 24.1 | 0.00 | 0.00 | 0.00 | 27 | 1008.2 |
| 20260504203913 | 20 | 350 | 11.3 | 24.1 | 0.00 | 0.00 | 0.00 | 27 | 1008.3 |
| 20260504203413 | 20 | 64 | 9.7 | 20.9 | 0.00 | 0.00 | 0.00 | 25 | 1008.3 |
| 20260504203026 | 21 | 285 | 8.0 | 32.2 | 0.00 | 0.00 | 0.00 | 32 | 1007.8 |
| 20260504202912 | 21 | 49 | 8.0 | 20.9 | 0.00 | 0.00 | 0.00 | 24 | 1008.3 |
| 20260504202407 | 21 | 106 | 9.7 | 17.7 | 0.00 | 0.00 | 0.00 | 26 | 1008.2 |
| 20260504201905 | 21 | 18 | 9.7 | 17.7 | 0.00 | 0.00 | 0.00 | 26 | 1008.2 |
| 20260504201508 | 21 | 132 | 6.4 | 17.7 | 0.00 | 0.00 | 0.00 | 30 | 1007.6 |
| 20260504201404 | 21 | 13 | 9.7 | 25.7 | 0.00 | 0.00 | 0.00 | 24 | 1008.2 |
| 20260504200901 | 21 | 89 | 9.7 | 25.7 | 0.00 | 0.00 | 0.00 | 25 | 1008.2 |
| 20260504200357 | 21 | 304 | 11.3 | 25.7 | 0.00 | 0.00 | 0.00 | 25 | 1008.2 |
| 20260504200011 | 21 | 352 | 4.8 | 25.7 | 0.00 | 0.00 | 0.00 | 32 | 1007.8 |
| 20260504195857 | 21 | 0 | 11.3 | 25.7 | 0.00 | 0.00 | 0.00 | 24 | 1008.2 |
| 20260504195355 | 21 | 66 | 9.7 | 24.1 | 0.00 | 0.00 | 0.00 | 25 | 1008.2 |
| 20260504194852 | 20 | 27 | 9.7 | 17.7 | 0.00 | 0.00 | 0.00 | 25 | 1008.2 |
| 20260504194515 | 20 | 205 | 8.0 | 27.4 | 0.00 | 0.00 | 0.00 | 31 | 1007.8 |
| 20260504194350 | 20 | 56 | 9.7 | 32.2 | 0.00 | 0.00 | 0.00 | 24 | 1008.2 |
| 20260504193846 | 20 | 329 | 11.3 | 27.4 | 0.00 | 0.00 | 0.00 | 25 | 1008.3 |
| 20260504193335 | 20 | 37 | 12.9 | 24.1 | 0.00 | 0.00 | 0.00 | 25 | 1008.3 |
| 20260504193021 | 21 | 273 | 8.0 | 19.3 | 0.00 | 0.00 | 0.00 | 30 | 1007.9 |
| 20260504192831 | 21 | 34 | 9.7 | 24.1 | 0.00 | 0.00 | 0.00 | 23 | 1008.3 |
| 20260504192327 | 21 | 51 | 9.7 | 20.9 | 0.00 | 0.00 | 0.00 | 24 | 1008.3 |
| 20260504191825 | 21 | 0 | 9.7 | 20.9 | 0.00 | 0.00 | 0.00 | 26 | 1008.3 |
| 20260504191506 | 20 | 165 | 11.3 | 24.1 | 0.00 | 0.00 | 0.00 | 32 | 1007.8 |
| 20260504191322 | 20 | 45 | 11.3 | 24.1 | 0.00 | 0.00 | 0.00 | 24 | 1008.3 |
| 20260504190821 | 21 | 346 | 8.0 | 24.1 | 0.00 | 0.00 | 0.00 | 23 | 1008.3 |
| 20260504190317 | 21 | 4 | 8.0 | 20.9 | 0.00 | 0.00 | 0.00 | 25 | 1008.3 |
| 20260504190009 | 21 | 248 | 6.4 | 20.9 | 0.00 | 0.00 | 0.00 | 31 | 1007.9 |
| 20260504185311 | 21 | 73 | 9.7 | 20.9 | 0.00 | 0.00 | 0.00 | 25 | 1008.6 |
| 20260504184809 | 20 | 23 | 8.0 | 20.9 | 0.00 | 0.00 | 0.00 | 24 | 1008.6 |
| 20260504184513 | 20 | 117 | 8.0 | 19.3 | 0.00 | 0.00 | 0.00 | 31 | 1008.0 |
| 20260504184309 | 21 | 72 | 6.4 | 20.9 | 0.00 | 0.00 | 0.00 | 23 | 1008.8 |
| 20260504183808 | 20 | 347 | 8.0 | 27.4 | 0.00 | 0.00 | 0.00 | 24 | 1008.8 |
| 20260504183307 | 20 | 65 | 9.7 | 27.4 | 0.00 | 0.00 | 0.00 | 24 | 1008.8 |
| 20260504183017 | 20 | 140 | 4.8 | 20.9 | 0.00 | 0.00 | 0.00 | 33 | 1008.3 |
| 20260504182258 | 20 | 342 | 12.9 | 37.0 | 0.00 | 0.00 | 0.00 | 24 | 1008.8 |
| 20260504181758 | 20 | 16 | 11.3 | 27.4 | 0.00 | 0.00 | 0.00 | 25 | 1008.8 |
| 20260504181522 | 20 | 238 | 9.7 | 20.9 | 0.00 | 0.00 | 0.00 | 35 | 1008.3 |
| 20260504180757 | 20 | 11 | 8.0 | 20.9 | 0.00 | 0.00 | 0.00 | 24 | 1009.0 |
| 20260504180251 | 20 | 1 | 9.7 | 24.1 | 0.00 | 0.00 | 0.00 | 24 | 1009.0 |
| 20260504180007 | 20 | 175 | 11.3 | 25.7 | 0.00 | 0.00 | 0.00 | 32 | 1008.5 |
| 20260504175749 | 20 | 16 | 12.9 | 32.2 | 0.00 | 0.00 | 0.00 | 25 | 1009.3 |
| 20260504175249 | 20 | 73 | 12.9 | 32.2 | 0.00 | 0.00 | 0.00 | 24 | 1009.3 |
| 20260504174745 | 20 | 0 | 12.9 | 27.4 | 0.00 | 0.00 | 0.00 | 24 | 1009.3 |
| 20260504174510 | 20 | 294 | 4.8 | 25.7 | 0.00 | 0.00 | 0.00 | 30 | 1008.7 |
| 20260504174241 | 20 | 110 | 14.5 | 35.4 | 0.00 | 0.00 | 0.00 | 23 | 1009.0 |
| 20260504173737 | 20 | 75 | 16.1 | 35.4 | 0.00 | 0.00 | 0.00 | 25 | 1009.0 |
| 20260504173237 | 19 | 0 | 12.9 | 24.1 | 0.00 | 0.00 | 0.00 | 24 | 1009.0 |
| 20260504173018 | 20 | 53 | 6.4 | 27.4 | 0.00 | 0.00 | 0.00 | 30 | 1008.4 |
| 20260504172735 | 19 | 68 | 11.3 | 27.4 | 0.00 | 0.00 | 0.00 | 25 | 1009.2 |
| 20260504171729 | 19 | 44 | 11.3 | 22.5 | 0.00 | 0.00 | 0.00 | 25 | 1009.2 |
| 20260504171523 | 20 | 86 | 6.4 | 24.1 | 0.00 | 0.00 | 0.00 | 31 | 1008.6 |
| 20260504171230 | 19 | 14 | 11.3 | 27.4 | 0.00 | 0.00 | 0.00 | 24 | 1009.3 |
| 20260504170729 | 19 | 25 | 12.9 | 32.2 | 0.00 | 0.00 | 0.00 | 26 | 1009.3 |
| 20260504170223 | 18 | 24 | 14.5 | 32.2 | 0.00 | 0.00 | 0.00 | 24 | 1009.3 |
| 20260504150545 | 17 | 48 | 11.3 | 27.4 | 0.00 | 0.00 | 0.00 | 26 | 1010.7 |
| 20260504140929 | 16 | 16 | 11.3 | 22.5 | 0.00 | 0.00 | 0.00 | 32 | 1011.2 |
| 20260504140428 | 16 | 58 | 8.0 | 20.9 | 0.00 | 0.00 | 0.00 | 31 | 1011.2 |
| 20260504130340 | 13 | 17 | 6.4 | 20.9 | 0.00 | 0.00 | 0.00 | 38 | 1011.8 |
| 20260504120258 | 10 | 6 | 8.0 | 20.9 | 0.00 | 0.00 | 0.00 | 45 | 1012.1 |
| 20260504110628 | 3 | 99 | 0.0 | 3.2 | 0.00 | 0.00 | 0.00 | 75 | 1012.2 |
| 20260504110110 | 2 | 119 | 0.0 | 0.0 | 0.00 | 0.00 | 0.00 | 80 | 1012.2 |
| 20260504100334 | 0 | 119 | 0.0 | 0.0 | 0.00 | 0.00 | 0.00 | 82 | 1012.0 |
| 20260504081521 | 1 | 344 | 0.0 | 0.0 | 0.00 | 0.00 | 0.00 | 88 | 1011.0 |
| 20260504081314 | 2 | 119 | 0.0 | 0.0 | 0.00 | 0.00 | 0.00 | 76 | 1011.5 |
| 20260504080759 | 2 | 119 | 0.0 | 0.0 | 0.00 | 0.00 | 0.00 | 77 | 1011.5 |
| 20260504060158 | 1 | 119 | 0.0 | 0.0 | 0.00 | 0.00 | 0.00 | 77 | 1011.5 |
| 20260504050430 | 1 | 119 | 0.0 | 0.0 | 0.00 | 0.00 | 0.00 | 74 | 1011.7 |
| 20260504050020 | 0 | 344 | 0.0 | 0.0 | 0.00 | 0.00 | 0.00 | 87 | 1010.7 |
| 20260504045915 | 1 | 119 | 0.0 | 0.0 | 0.00 | 0.00 | 0.00 | 74 | 1011.7 |
| 20260504045404 | 1 | 119 | 0.0 | 0.0 | 0.00 | 0.00 | 0.00 | 74 | 1011.9 |
| 20260504044901 | 1 | 119 | 0.0 | 0.0 | 0.00 | 0.00 | 0.00 | 73 | 1011.9 |
| 20260504044524 | 0 | 344 | 0.0 | 0.0 | 0.00 | 0.00 | 0.00 | 85 | 1010.9 |
| 20260504044355 | 1 | 119 | 0.0 | 0.0 | 0.00 | 0.00 | 0.00 | 73 | 1011.9 |
| 20260504043851 | 1 | 119 | 0.0 | 0.0 | 0.00 | 0.00 | 0.00 | 73 | 1011.7 |
| 20260504043344 | 1 | 119 | 0.0 | 0.0 | 0.00 | 0.00 | 0.00 | 73 | 1011.7 |
| 20260504043028 | 0 | 344 | 0.0 | 0.0 | 0.00 | 0.00 | 0.00 | 85 | 1010.8 |
| 20260504042818 | 1 | 119 | 0.0 | 0.0 | 0.00 | 0.00 | 0.00 | 74 | 1011.6 |
| 20260504042308 | 1 | 119 | 0.0 | 0.0 | 0.00 | 0.00 | 0.00 | 73 | 1011.6 |
| 20260504041731 | 1 | 119 | 0.0 | 0.0 | 0.00 | 0.00 | 0.00 | 73 | 1011.6 |
| 20260504041539 | 0 | 344 | 0.0 | 0.0 | 0.00 | 0.00 | 0.00 | 85 | 1010.7 |
| 20260504041202 | 1 | 119 | 0.0 | 0.0 | 0.00 | 0.00 | 0.00 | 73 | 1011.5 |
| 20260504040658 | 1 | 119 | 0.0 | 0.0 | 0.00 | 0.00 | 0.00 | 73 | 1011.5 |
| 20260504040134 | 1 | 119 | 0.0 | 0.0 | 0.00 | 0.00 | 0.00 | 72 | 1011.5 |
| 20260504040021 | 0 | 344 | 0.0 | 0.0 | 0.00 | 0.00 | 0.00 | 86 | 1010.7 |
| 20260504035636 | 1 | 119 | 0.0 | 0.0 | 0.00 | 0.00 | 0.00 | 71 | 1011.5 |
| 20260504035119 | 1 | 119 | 0.0 | 0.0 | 0.00 | 0.00 | 0.00 | 71 | 1011.5 |
| 20260504034603 | 1 | 119 | 0.0 | 0.0 | 0.00 | 0.00 | 0.00 | 71 | 1011.5 |
| 20260504034522 | 0 | 344 | 0.0 | 0.0 | 0.00 | 0.00 | 0.00 | 84 | 1010.6 |
| 20260504034059 | 1 | 119 | 0.0 | 0.0 | 0.00 | 0.00 | 0.00 | 71 | 1011.5 |
| 20260504033543 | 1 | 119 | 0.0 | 0.0 | 0.00 | 0.00 | 0.00 | 70 | 1011.5 |
| 20260504033033 | 1 | 119 | 0.0 | 0.0 | 0.00 | 0.00 | 0.00 | 71 | 1011.5 |
| 20260504033026 | 0 | 344 | 0.0 | 0.0 | 0.00 | 0.00 | 0.00 | 83 | 1010.6 |
| 20260504032009 | 1 | 119 | 0.0 | 0.0 | 0.00 | 0.00 | 0.00 | 70 | 1011.4 |
| 20260504031528 | 0 | 344 | 0.0 | 0.0 | 0.00 | 0.00 | 0.00 | 84 | 1010.6 |
| 20260504031435 | 1 | 119 | 0.0 | 0.0 | 0.00 | 0.00 | 0.00 | 70 | 1011.4 |
| 20260504030917 | 1 | 119 | 0.0 | 0.0 | 0.00 | 0.00 | 0.00 | 69 | 1011.2 |
| 20260504030338 | 1 | 119 | 0.0 | 0.0 | 0.00 | 0.00 | 0.00 | 70 | 1011.2 |
| 20260504030029 | 1 | 344 | 0.0 | 3.2 | 0.00 | 0.00 | 0.00 | 84 | 1010.4 |
| 20260504025837 | 1 | 119 | 0.0 | 0.0 | 0.00 | 0.00 | 0.00 | 70 | 1011.1 |
| 20260504025333 | 1 | 119 | 0.0 | 0.0 | 0.00 | 0.00 | 0.00 | 69 | 1011.1 |
| 20260504024807 | 1 | 119 | 0.0 | 0.0 | 0.00 | 0.00 | 0.00 | 69 | 1011.1 |
| 20260504024517 | 0 | 344 | 0.0 | 0.0 | 0.00 | 0.00 | 0.00 | 85 | 1010.3 |
| 20260504024242 | 1 | 119 | 0.0 | 0.0 | 0.00 | 0.00 | 0.00 | 69 | 1011.0 |
| 20260504023733 | 1 | 119 | 0.0 | 0.0 | 0.00 | 0.00 | 0.00 | 69 | 1011.0 |
| 20260504023228 | 1 | 119 | 0.0 | 0.0 | 0.00 | 0.00 | 0.00 | 69 | 1011.0 |
| 20260504023022 | 0 | 344 | 0.0 | 0.0 | 0.00 | 0.00 | 0.00 | 84 | 1010.3 |
| 20260504022705 | 1 | 119 | 0.0 | 0.0 | 0.00 | 0.00 | 0.00 | 69 | 1011.0 |
| 20260504022130 | 1 | 119 | 0.0 | 0.0 | 0.00 | 0.00 | 0.00 | 69 | 1011.0 |
| 20260504021627 | 2 | 119 | 0.0 | 0.0 | 0.00 | 0.00 | 0.00 | 68 | 1011.0 |
| 20260504021523 | 1 | 344 | 0.0 | 0.0 | 0.00 | 0.00 | 0.00 | 82 | 1010.1 |
| 20260504021055 | 2 | 119 | 0.0 | 0.0 | 0.00 | 0.00 | 0.00 | 66 | 1010.9 |
| 20260504020538 | 2 | 119 | 0.0 | 0.0 | 0.00 | 0.00 | 0.00 | 66 | 1010.9 |
| 20260504020036 | 1 | 344 | 0.0 | 0.0 | 0.00 | 0.00 | 0.00 | 79 | 1010.1 |
| 20260504020012 | 2 | 119 | 0.0 | 0.0 | 0.00 | 0.00 | 0.00 | 64 | 1010.9 |
| 20260504015500 | 2 | 119 | 0.0 | 0.0 | 0.00 | 0.00 | 0.00 | 63 | 1010.9 |
| 20260504014941 | 2 | 119 | 0.0 | 0.0 | 0.00 | 0.00 | 0.00 | 63 | 1010.9 |
| 20260504014532 | 1 | 344 | 0.0 | 0.0 | 0.00 | 0.00 | 0.00 | 78 | 1009.9 |
| 20260504014436 | 2 | 119 | 0.0 | 0.0 | 0.00 | 0.00 | 0.00 | 62 | 1010.9 |
| 20260504013021 | 2 | 344 | 0.0 | 0.0 | 0.00 | 0.00 | 0.00 | 75 | 1009.8 |
| 20260504012842 | 3 | 119 | 0.0 | 0.0 | 0.00 | 0.00 | 0.00 | 59 | 1010.5 |
| 20260504012300 | 3 | 119 | 0.0 | 0.0 | 0.00 | 0.00 | 0.00 | 58 | 1010.5 |
| 20260504011721 | 3 | 119 | 0.0 | 0.0 | 0.00 | 0.00 | 0.00 | 57 | 1010.5 |
| 20260504011525 | 2 | 344 | 0.0 | 0.0 | 0.00 | 0.00 | 0.00 | 73 | 1009.6 |
| 20260504011218 | 3 | 119 | 0.0 | 0.0 | 0.00 | 0.00 | 0.00 | 55 | 1010.2 |
| 20260504010717 | 4 | 119 | 0.0 | 0.0 | 0.00 | 0.00 | 0.00 | 54 | 1010.2 |
| 20260504010024 | 2 | 344 | 0.0 | 0.0 | 0.00 | 0.00 | 0.00 | 73 | 1009.4 |
| 20260504005649 | 4 | 119 | 0.0 | 0.0 | 0.00 | 0.00 | 0.00 | 54 | 1010.0 |
| 20260504005114 | 5 | 119 | 0.0 | 0.0 | 0.00 | 0.00 | 0.00 | 52 | 1010.0 |
| 20260504004528 | 3 | 344 | 0.0 | 0.0 | 0.00 | 0.00 | 0.00 | 68 | 1009.3 |
| 20260504004057 | 5 | 119 | 0.0 | 0.0 | 0.00 | 0.00 | 0.00 | 50 | 1009.9 |